Yakima, WA

11:06 AM PDT on June 28, 2017 (GMT -0700)
Yakima Air Term-McAllister

Weather History for KYKM - April, 2014

Change the Weather History Date:

Wednesday, April 23, 2014

  Actual Average Record
Temperature  
Mean Temperature 46 °F 50 °F  
Max Temperature 58 °F 66 °F 90 °F (2012)
Min Temperature 33 °F 36 °F 25 °F (1992)
Degree Days  
Heating Degree Days 19 15  
Month to date heating degree days 293 383  
Since 1 July heating degree days 5329 5587  
Cooling Degree Days 0 0  
Month to date cooling degree days 0 0  
Year to date cooling degree days 0 0  
Moisture  
Dew Point 37 °F    
Average Humidity 63    
Maximum Humidity 82    
Minimum Humidity 43    
Precipitation  
Precipitation 0.01 in 0.02 in 0.45 in (2005)
Month to date precipitation 0.46 0.41  
Year to date precipitation 2.79 2.95  
Snow  
Snow 0.00 in 0.00 in 0.00 in (2002)
Month to date snowfall 0.0 0.0  
Year to date snowfall 19.9 8.6  
Since 1 July snowfall 19.9 21.6  
Snow Depth 0.00 in    
Sea Level Pressure  
Sea Level Pressure 29.85 in    
Wind  
Wind Speed 7 mph (SSW)    
Max Wind Speed 17 mph    
Max Gust Speed 22 mph    
Visibility 10 miles    
Events Rain    
T = Trace of Precipitation, MM = Missing Value Source: NWS Daily Summary

Daily Weather History Graph

Daily Weather History Graph

Search for Another Location

Airport or City:

Trip Planner

Search our weather history database for the weather conditions in past years. The results will help you decide how hot, cold, wet, or windy it might be!

Date:

Astronomy

Apr. 23, 2014 Rise Set
Actual Time 6:00 AM PDT 8:01 PM PDT
Civil Twilight 5:28 AM PDT 8:33 PM PDT
Nautical Twilight 4:48 AM PDT 9:14 PM PDT
Astronomical Twilight 4:03 AM PDT 9:58 PM PDT
Moon 2:57 AM PDT (4/23) 1:54 PM PDT (4/23)
Length of Visible Light 15h 05m
Length of Day
14h 00m
Waning Crescent, 34% of the Moon is Illuminated
Apr 23
Waning Crescent
Apr 28
New
May 6
First Quarter
May 14
Full
May 21
Last Quarter

Hourly Weather History & Observations

Time (PDT) Temp. Windchill Dew Point Humidity Pressure Visibility Wind Dir Wind Speed Gust Speed Precip Events Conditions
12:53 AM 45.0 °F 42.6 °F 34.0 °F 65% 29.86 in 10.0 mi SSW 4.6 mph - N/A   Clear
1:53 AM 44.1 °F 41.5 °F 34.0 °F 68% 29.86 in 10.0 mi WNW 4.6 mph - N/A   Clear
2:53 AM 39.9 °F 35.8 °F 33.1 °F 77% 29.86 in 10.0 mi West 5.8 mph - N/A   Partly Cloudy
3:53 AM 39.9 °F 35.8 °F 32.0 °F 73% 29.87 in 10.0 mi West 5.8 mph - N/A   Clear
4:53 AM 35.1 °F 32.2 °F 30.9 °F 85% 29.88 in 10.0 mi WSW 3.5 mph - N/A   Clear
5:53 AM 35.1 °F 27.9 °F 30.0 °F 82% 29.89 in 10.0 mi WSW 9.2 mph - N/A   Partly Cloudy
6:53 AM 36.0 °F 30.3 °F 30.0 °F 79% 29.91 in 10.0 mi West 6.9 mph - N/A   Clear
7:53 AM 44.1 °F 41.5 °F 34.0 °F 68% 29.91 in 10.0 mi WNW 4.6 mph - N/A   Scattered Clouds
8:53 AM 46.9 °F - 35.1 °F 63% 29.90 in 10.0 mi Calm Calm - N/A   Scattered Clouds
9:53 AM 51.8 °F - 35.6 °F 54% 29.89 in 10.0 mi Calm Calm - N/A   Clear
10:53 AM 54.0 °F - 35.1 °F 49% 29.89 in 10.0 mi South 11.5 mph 19.6 mph N/A   Scattered Clouds
11:53 AM 55.0 °F - 34.0 °F 45% 29.88 in 10.0 mi South 11.5 mph - N/A   Overcast
12:53 PM 55.4 °F - 35.6 °F 47% 29.87 in 10.0 mi South 12.7 mph - N/A   Overcast
1:53 PM 53.1 °F - 39.0 °F 59% 29.89 in 10.0 mi SSE 8.1 mph - 0.00 in Rain Light Rain
2:53 PM 55.9 °F - 37.9 °F 51% 29.88 in 10.0 mi South 9.2 mph - 0.01 in Rain Light Rain
3:53 PM 55.9 °F - 37.9 °F 51% 29.86 in 10.0 mi Variable 3.5 mph - 0.00 in   Scattered Clouds
4:53 PM 57.0 °F - 37.9 °F 49% 29.85 in 10.0 mi SSW 6.9 mph - N/A   Overcast
5:53 PM 57.0 °F - 39.9 °F 53% 29.82 in 10.0 mi South 12.7 mph - N/A   Overcast
6:53 PM 55.0 °F - 39.9 °F 57% 29.81 in 10.0 mi South 10.4 mph - N/A   Overcast
7:53 PM 53.1 °F - 41.0 °F 64% 29.80 in 10.0 mi South 11.5 mph - N/A   Overcast
8:53 PM 53.1 °F - 41.0 °F 64% 29.79 in 10.0 mi South 9.2 mph - 0.00 in   Overcast
9:53 PM 52.0 °F - 44.1 °F 74% 29.78 in 10.0 mi SSE 5.8 mph - 0.00 in   Overcast
10:53 PM 51.1 °F - 44.1 °F 77% 29.75 in 10.0 mi SSE 3.5 mph - N/A   Overcast
11:53 PM 51.1 °F - 44.1 °F 77% 29.73 in 10.0 mi SE 8.1 mph - N/A   Overcast